BTI659 ESSA-ENBR

Flight info

Callsign BTI659
Flight time 1h 20m
Altitude FL400
Route ARS4K ARS N623 IBGAX EBURI N623 ESEBA ATLAP PESUR PESU3N
Aircraft E190/M-SDE3GILORVW/S

Departure

Time 2026-05-05 06:58
Airport Stockholm-Arlanda Airport (ESSA)

Arrival

Time 2026-05-05 08:19
Airport Bergen Airport, Flesland (ENBR)
Time Latitude Longitude Altitude Speed Heading
2026-05-05 06:47 59.64830 17.92382 87 ft 0 kts 190°
2026-05-05 06:50 59.64829 17.92381 86 ft 1 kts 192°
2026-05-05 06:50 59.64831 17.92360 86 ft 3 kts 338°
2026-05-05 06:51 59.64867 17.92350 85 ft 7 kts 344°
2026-05-05 06:51 59.64919 17.92306 83 ft 10 kts 350°
2026-05-05 06:51 59.64992 17.92308 81 ft 12 kts
2026-05-05 06:51 59.65075 17.92333 80 ft 13 kts
2026-05-05 06:52 59.65169 17.92365 79 ft 14 kts 17°
2026-05-05 06:52 59.65262 17.92435 80 ft 14 kts 23°
2026-05-05 06:52 59.65354 17.92533 79 ft 15 kts 42°
2026-05-05 06:52 59.65423 17.92674 82 ft 14 kts 55°
2026-05-05 06:53 59.65464 17.92829 85 ft 12 kts 64°
2026-05-05 06:53 59.65494 17.92974 88 ft 12 kts 69°
2026-05-05 06:53 59.65521 17.93157 89 ft 16 kts 76°
2026-05-05 06:53 59.65603 17.93326 91 ft 19 kts 42°
2026-05-05 06:54 59.65653 17.93574 94 ft 21 kts 78°
2026-05-05 06:54 59.65691 17.93871 96 ft 24 kts 76°
2026-05-05 06:54 59.65735 17.94200 101 ft 26 kts 76°
2026-05-05 06:54 59.65779 17.94557 108 ft 28 kts 77°
2026-05-05 06:55 59.65828 17.94938 111 ft 30 kts 75°
2026-05-05 06:55 59.65877 17.95338 115 ft 29 kts 74°
2026-05-05 06:55 59.65931 17.95732 111 ft 31 kts 73°
2026-05-05 06:55 59.65985 17.96160 102 ft 34 kts 77°
2026-05-05 06:56 59.66043 17.96619 99 ft 35 kts 77°
2026-05-05 06:56 59.66098 17.97059 110 ft 31 kts 76°
2026-05-05 06:56 59.66146 17.97453 116 ft 29 kts 76°
2026-05-05 06:56 59.66211 17.97755 122 ft 17 kts 49°
2026-05-05 06:57 59.66297 17.97914 121 ft 17 kts 18°
2026-05-05 06:57 59.66378 17.97861 120 ft 11 kts 285°
2026-05-05 06:57 59.66378 17.97818 120 ft 0 kts 256°
2026-05-05 06:57 59.66377 17.97817 120 ft 0 kts 256°
2026-05-05 06:58 59.66332 17.97425 115 ft 71 kts 256°
2026-05-05 06:58 59.66150 17.96006 107 ft 139 kts 256°
2026-05-05 06:58 59.65856 17.94009 470 ft 160 kts 254°
2026-05-05 06:58 59.65476 17.91885 1177 ft 167 kts 255°
2026-05-05 06:59 59.65243 17.89608 1940 ft 178 kts 263°
2026-05-05 06:59 59.65025 17.87231 2873 ft 182 kts 262°
2026-05-05 06:59 59.64857 17.84709 3574 ft 197 kts 275°
2026-05-05 06:59 59.65004 17.81830 4040 ft 230 kts 277°
2026-05-05 07:00 59.65183 17.78527 4710 ft 254 kts 277°
2026-05-05 07:00 59.65364 17.75066 5830 ft 259 kts 277°
2026-05-05 07:00 59.65540 17.71595 7126 ft 256 kts 276°
2026-05-05 07:00 59.65710 17.68201 8379 ft 253 kts 276°
2026-05-05 07:01 59.65797 17.64832 9582 ft 250 kts 265°
2026-05-05 07:01 59.65584 17.61498 10653 ft 251 kts 263°
2026-05-05 07:01 59.65352 17.58096 11536 ft 257 kts 263°
2026-05-05 07:01 59.65110 17.54571 12311 ft 267 kts 263°
2026-05-05 07:02 59.64860 17.50939 13167 ft 273 kts 262°
2026-05-05 07:02 59.64603 17.47250 14177 ft 273 kts 262°
2026-05-05 07:02 59.64350 17.43615 15210 ft 271 kts 262°
2026-05-05 07:02 59.64096 17.39976 16105 ft 272 kts 262°
2026-05-05 07:03 59.63835 17.36287 16916 ft 276 kts 261°
2026-05-05 07:03 59.63572 17.32552 17694 ft 280 kts 260°
2026-05-05 07:03 59.63303 17.28766 18509 ft 283 kts 260°
2026-05-05 07:03 59.63031 17.24936 19304 ft 286 kts 259°
2026-05-05 07:04 59.62751 17.21028 20057 ft 291 kts 260°
2026-05-05 07:04 59.62470 17.17101 20844 ft 293 kts 260°
2026-05-05 07:04 59.62184 17.13133 21586 ft 296 kts 260°
2026-05-05 07:04 59.61893 17.09125 22287 ft 300 kts 260°
2026-05-05 07:05 59.61597 17.05053 22968 ft 304 kts 260°
2026-05-05 07:05 59.61296 17.00932 23637 ft 308 kts 260°
2026-05-05 07:05 59.60991 16.96770 24307 ft 311 kts 260°
2026-05-05 07:05 59.60681 16.92545 24977 ft 314 kts 260°
2026-05-05 07:06 59.60366 16.88300 25613 ft 317 kts 260°
2026-05-05 07:06 59.60047 16.84005 26222 ft 321 kts 260°
2026-05-05 07:06 59.59722 16.79649 26801 ft 325 kts 260°
2026-05-05 07:06 59.59393 16.75255 27380 ft 329 kts 260°
2026-05-05 07:07 59.59057 16.70802 27964 ft 332 kts 260°
2026-05-05 07:07 59.58768 16.66296 28524 ft 336 kts 265°
2026-05-05 07:07 59.58918 16.61620 29077 ft 345 kts 276°
2026-05-05 07:07 59.59414 16.56969 29603 ft 350 kts 277°
2026-05-05 07:08 59.59906 16.52281 30131 ft 353 kts 276°
2026-05-05 07:08 59.60387 16.47559 30686 ft 355 kts 276°
2026-05-05 07:08 59.60867 16.42804 31160 ft 358 kts 276°
2026-05-05 07:08 59.61349 16.37991 31613 ft 362 kts 276°
2026-05-05 07:09 59.61833 16.33136 32086 ft 364 kts 276°
2026-05-05 07:09 59.62321 16.28226 32663 ft 365 kts 276°
2026-05-05 07:09 59.62801 16.23363 33279 ft 363 kts 276°
2026-05-05 07:09 59.63341 16.18522 33852 ft 363 kts 277°
2026-05-05 07:10 59.63902 16.13711 34329 ft 362 kts 277°
2026-05-05 07:10 59.64457 16.08899 34757 ft 362 kts 277°
2026-05-05 07:10 59.65011 16.04073 35057 ft 363 kts 278°
2026-05-05 07:10 59.65567 15.99202 35334 ft 365 kts 277°
2026-05-05 07:11 59.66122 15.94328 35579 ft 367 kts 278°
2026-05-05 07:11 59.66678 15.89422 35830 ft 369 kts 278°
2026-05-05 07:11 59.67237 15.84488 36085 ft 371 kts 278°
2026-05-05 07:11 59.67795 15.79539 36335 ft 372 kts 278°
2026-05-05 07:12 59.68353 15.74569 36565 ft 374 kts 278°
2026-05-05 07:12 59.68913 15.69561 36783 ft 376 kts 278°
2026-05-05 07:12 59.69473 15.64535 36998 ft 378 kts 279°
2026-05-05 07:12 59.70039 15.59436 37200 ft 380 kts 279°
2026-05-05 07:13 59.70600 15.54364 37406 ft 381 kts 279°
2026-05-05 07:13 59.71162 15.49259 37587 ft 383 kts 279°
2026-05-05 07:13 59.71724 15.44134 37737 ft 385 kts 279°
2026-05-05 07:13 59.72288 15.38978 37899 ft 386 kts 279°
2026-05-05 07:14 59.72849 15.33802 38033 ft 388 kts 278°
2026-05-05 07:14 59.73412 15.28604 38229 ft 389 kts 278°
2026-05-05 07:14 59.73976 15.23363 38438 ft 390 kts 279°
2026-05-05 07:14 59.74536 15.18141 38656 ft 391 kts 278°
2026-05-05 07:15 59.75096 15.12886 38865 ft 391 kts 278°
2026-05-05 07:15 59.75653 15.07654 39060 ft 392 kts 278°
2026-05-05 07:15 59.76211 15.02392 39255 ft 393 kts 279°
2026-05-05 07:15 59.76767 14.97132 39449 ft 393 kts 279°
2026-05-05 07:16 59.77322 14.91850 39651 ft 394 kts 279°
2026-05-05 07:16 59.78421 14.81321 39766 ft 392 kts 279°
2026-05-05 07:17 59.79525 14.70655 39760 ft 402 kts 279°
2026-05-05 07:17 59.80651 14.59717 39763 ft 411 kts 279°
2026-05-05 07:18 59.81796 14.48505 39762 ft 420 kts 279°
2026-05-05 07:18 59.82946 14.37135 39771 ft 424 kts 279°
2026-05-05 07:19 59.84087 14.25753 39778 ft 421 kts 278°
2026-05-05 07:19 59.85214 14.14408 39782 ft 421 kts 278°
2026-05-05 07:20 59.86334 14.03025 39777 ft 421 kts 278°
2026-05-05 07:20 59.87441 13.91664 39783 ft 421 kts 278°
2026-05-05 07:21 59.88539 13.80289 39789 ft 422 kts 278°
2026-05-05 07:21 59.89631 13.68870 39777 ft 421 kts 278°
2026-05-05 07:22 59.90711 13.57458 39790 ft 422 kts 278°
2026-05-05 07:22 59.91781 13.46047 39788 ft 422 kts 278°
2026-05-05 07:23 59.92841 13.34631 39781 ft 422 kts 278°
2026-05-05 07:23 59.93894 13.23172 39790 ft 421 kts 278°
2026-05-05 07:24 59.94931 13.11770 39794 ft 421 kts 278°
2026-05-05 07:24 59.95960 13.00344 39793 ft 421 kts 277°
2026-05-05 07:25 59.96983 12.88859 39794 ft 421 kts 277°
2026-05-05 07:25 59.97994 12.77401 39787 ft 422 kts 278°
2026-05-05 07:26 59.98991 12.65954 39787 ft 422 kts 278°
2026-05-05 07:26 59.99977 12.54480 39792 ft 423 kts 277°
2026-05-05 07:27 60.00958 12.42929 39805 ft 424 kts 278°
2026-05-05 07:27 60.01757 12.31369 39803 ft 423 kts 274°
2026-05-05 07:28 60.02451 12.19807 39790 ft 422 kts 274°
2026-05-05 07:28 60.03141 12.08205 39801 ft 423 kts 275°
2026-05-05 07:29 60.03819 11.96633 39787 ft 422 kts 275°
2026-05-05 07:29 60.04487 11.85070 39783 ft 421 kts 275°
2026-05-05 07:30 60.05147 11.73454 39803 ft 425 kts 275°
2026-05-05 07:30 60.06121 11.55966 39802 ft 423 kts 275°
2026-05-05 07:31 60.06756 11.44329 39802 ft 424 kts 275°
2026-05-05 07:31 60.07382 11.32672 39817 ft 424 kts 274°
2026-05-05 07:32 60.08000 11.20955 39794 ft 424 kts 274°
2026-05-05 07:32 60.08606 11.09292 39822 ft 424 kts 274°
2026-05-05 07:33 60.09201 10.97609 39827 ft 425 kts 274°
2026-05-05 07:33 60.09790 10.85852 39822 ft 425 kts 274°
2026-05-05 07:34 60.10366 10.74132 39814 ft 427 kts 274°
2026-05-05 07:34 60.10932 10.62404 39805 ft 424 kts 274°
2026-05-05 07:35 60.11489 10.50653 39803 ft 427 kts 274°
2026-05-05 07:35 60.12036 10.38868 39804 ft 426 kts 274°
2026-05-05 07:36 60.12571 10.27143 39815 ft 425 kts 274°
2026-05-05 07:36 60.13095 10.15382 39826 ft 426 kts 274°
2026-05-05 07:37 60.13611 10.03598 39822 ft 425 kts 274°
2026-05-05 07:37 60.14113 9.91892 39826 ft 424 kts 274°
2026-05-05 07:38 60.14607 9.80104 39835 ft 424 kts 274°
2026-05-05 07:38 60.15090 9.68614 39807 ft 406 kts 274°
2026-05-05 07:39 60.15551 9.57393 39757 ft 406 kts 274°
2026-05-05 07:39 60.15780 9.51723 39354 ft 410 kts 274°
2026-05-05 07:39 60.16006 9.46107 38912 ft 405 kts 274°
2026-05-05 07:40 60.16227 9.40538 38482 ft 399 kts 274°
2026-05-05 07:40 60.16443 9.35041 38056 ft 394 kts 273°
2026-05-05 07:40 60.16651 9.29653 37690 ft 391 kts 272°
2026-05-05 07:40 60.16861 9.24184 37298 ft 391 kts 272°
2026-05-05 07:41 60.17065 9.18798 36887 ft 387 kts 273°
2026-05-05 07:41 60.17265 9.13489 36477 ft 384 kts 272°
2026-05-05 07:41 60.17462 9.08194 36035 ft 378 kts 272°
2026-05-05 07:41 60.17652 9.03010 35631 ft 372 kts 272°
2026-05-05 07:42 60.17839 8.97885 35213 ft 369 kts 272°
2026-05-05 07:42 60.18022 8.92780 34818 ft 365 kts 272°
2026-05-05 07:42 60.18203 8.87712 34385 ft 365 kts 272°
2026-05-05 07:42 60.18381 8.82655 34006 ft 364 kts 272°
2026-05-05 07:43 60.18556 8.77614 33581 ft 363 kts 272°
2026-05-05 07:43 60.18728 8.72616 33226 ft 363 kts 271°
2026-05-05 07:43 60.18899 8.67593 32774 ft 360 kts 272°
2026-05-05 07:43 60.19068 8.62606 32343 ft 358 kts 272°
2026-05-05 07:44 60.19232 8.57639 31986 ft 359 kts 272°
2026-05-05 07:44 60.19398 8.52623 31538 ft 357 kts 272°
2026-05-05 07:44 60.19557 8.47714 31096 ft 355 kts 272°
2026-05-05 07:44 60.19717 8.42784 30697 ft 354 kts 272°
2026-05-05 07:45 60.19872 8.37870 30297 ft 351 kts 272°
2026-05-05 07:45 60.20023 8.33070 29908 ft 345 kts 271°
2026-05-05 07:45 60.20172 8.28275 29543 ft 343 kts 271°
2026-05-05 07:45 60.20318 8.23531 29149 ft 342 kts 271°
2026-05-05 07:46 60.20463 8.18762 28783 ft 341 kts 271°
2026-05-05 07:46 60.20604 8.14063 28418 ft 337 kts 271°
2026-05-05 07:46 60.20742 8.09413 28058 ft 334 kts 271°
2026-05-05 07:46 60.20876 8.04804 27696 ft 332 kts 271°
2026-05-05 07:47 60.21009 8.00200 27337 ft 330 kts 271°
2026-05-05 07:47 60.21139 7.95661 26977 ft 328 kts 271°
2026-05-05 07:47 60.21268 7.91098 26610 ft 327 kts 271°
2026-05-05 07:47 60.21395 7.86546 26238 ft 324 kts 271°
2026-05-05 07:48 60.21519 7.82069 25885 ft 322 kts 271°
2026-05-05 07:48 60.21640 7.77605 25526 ft 318 kts 271°
2026-05-05 07:48 60.21758 7.73198 25176 ft 317 kts 271°
2026-05-05 07:48 60.21875 7.68825 24825 ft 312 kts 270°
2026-05-05 07:49 60.21988 7.64493 24503 ft 309 kts 271°
2026-05-05 07:49 60.22099 7.60199 24153 ft 311 kts 271°
2026-05-05 07:49 60.22210 7.55869 23825 ft 307 kts 271°
2026-05-05 07:49 60.22317 7.51611 23487 ft 308 kts 271°
2026-05-05 07:50 60.22423 7.47349 23137 ft 305 kts 272°
2026-05-05 07:50 60.22527 7.43111 22818 ft 304 kts 271°
2026-05-05 07:50 60.22630 7.38887 22469 ft 304 kts 271°
2026-05-05 07:50 60.22731 7.34657 22116 ft 303 kts 271°
2026-05-05 07:51 60.22830 7.30433 21799 ft 303 kts 271°
2026-05-05 07:51 60.22929 7.26250 21440 ft 298 kts 271°
2026-05-05 07:51 60.23025 7.22054 21135 ft 300 kts 271°
2026-05-05 07:51 60.23120 7.17878 20772 ft 300 kts 271°
2026-05-05 07:52 60.23212 7.13745 20463 ft 297 kts 271°
2026-05-05 07:52 60.23304 7.09606 20145 ft 296 kts 271°
2026-05-05 07:52 60.23393 7.05481 19800 ft 296 kts 272°
2026-05-05 07:52 60.23482 7.01381 19487 ft 293 kts 272°
2026-05-05 07:53 60.23568 6.97276 19182 ft 292 kts 272°
2026-05-05 07:53 60.23653 6.93208 18866 ft 293 kts 272°
2026-05-05 07:53 60.23737 6.89106 18513 ft 294 kts 272°
2026-05-05 07:53 60.23820 6.85020 18188 ft 293 kts 272°
2026-05-05 07:54 60.23901 6.80949 17852 ft 292 kts 272°
2026-05-05 07:54 60.23981 6.76874 17533 ft 293 kts 272°
2026-05-05 07:54 60.24059 6.72789 17211 ft 295 kts 272°
2026-05-05 07:54 60.24138 6.68642 16887 ft 294 kts 272°
2026-05-05 07:55 60.24215 6.64546 16573 ft 294 kts 272°
2026-05-05 07:55 60.24291 6.60452 16257 ft 293 kts 274°
2026-05-05 07:55 60.24813 6.56536 16000 ft 295 kts 293°
2026-05-05 07:55 60.25720 6.52842 15722 ft 298 kts 294°
2026-05-05 07:56 60.26631 6.49135 15392 ft 297 kts 294°
2026-05-05 07:56 60.27543 6.45409 15065 ft 296 kts 294°
2026-05-05 07:56 60.28458 6.41665 14737 ft 297 kts 295°
2026-05-05 07:56 60.29363 6.37951 14412 ft 297 kts 294°
2026-05-05 07:57 60.30270 6.34224 14077 ft 297 kts 294°
2026-05-05 07:57 60.31169 6.30524 13752 ft 296 kts 294°
2026-05-05 07:57 60.32066 6.26827 13426 ft 289 kts 294°
2026-05-05 07:57 60.32926 6.23277 13107 ft 276 kts 294°
2026-05-05 07:58 60.33746 6.19886 12830 ft 264 kts 294°
2026-05-05 07:58 60.34539 6.16598 12559 ft 257 kts 294°
2026-05-05 07:58 60.35317 6.13363 12304 ft 259 kts 294°
2026-05-05 07:58 60.36103 6.10095 12070 ft 261 kts 294°
2026-05-05 07:59 60.36893 6.06811 11806 ft 261 kts 294°
2026-05-05 07:59 60.37677 6.03546 11528 ft 260 kts 294°
2026-05-05 07:59 60.38463 6.00265 11248 ft 260 kts 294°
2026-05-05 07:59 60.39239 5.97010 10968 ft 258 kts 294°
2026-05-05 08:00 60.40009 5.93780 10683 ft 249 kts 294°
2026-05-05 08:00 60.40748 5.90686 10404 ft 240 kts 294°
2026-05-05 08:00 60.41455 5.87720 10145 ft 231 kts 294°
2026-05-05 08:00 60.42137 5.84855 9918 ft 222 kts 294°
2026-05-05 08:01 60.42796 5.82081 9744 ft 220 kts 294°
2026-05-05 08:01 60.43456 5.79300 9456 ft 222 kts 295°
2026-05-05 08:01 60.44121 5.76491 9190 ft 219 kts 295°
2026-05-05 08:01 60.44766 5.73769 8941 ft 208 kts 295°
2026-05-05 08:02 60.45371 5.71206 8729 ft 198 kts 295°
2026-05-05 08:02 60.45950 5.68755 8524 ft 189 kts 295°
2026-05-05 08:02 60.46512 5.66369 8336 ft 188 kts 294°
2026-05-05 08:02 60.47079 5.63962 8151 ft 190 kts 295°
2026-05-05 08:03 60.47889 5.61871 7929 ft 196 kts 329°
2026-05-05 08:03 60.49219 5.61369 7969 ft 200 kts 354°
2026-05-05 08:03 60.50631 5.61333 7991 ft 202 kts 355°
2026-05-05 08:03 60.52037 5.61326 7953 ft 203 kts 356°
2026-05-05 08:04 60.53438 5.61267 7929 ft 201 kts 346°
2026-05-05 08:04 60.54761 5.60430 7944 ft 199 kts 338°
2026-05-05 08:04 60.56060 5.59512 7940 ft 198 kts 337°
2026-05-05 08:04 60.57358 5.58592 7929 ft 199 kts 338°
2026-05-05 08:05 60.58657 5.57656 7925 ft 197 kts 333°
2026-05-05 08:05 60.59768 5.56086 7935 ft 194 kts 319°
2026-05-05 08:05 60.60819 5.54353 7931 ft 195 kts 319°
2026-05-05 08:05 60.61866 5.52617 7930 ft 195 kts 319°
2026-05-05 08:06 60.62914 5.50877 7922 ft 193 kts 319°
2026-05-05 08:06 60.63715 5.48940 7978 ft 164 kts 300°
2026-05-05 08:06 60.64286 5.47020 7932 ft 157 kts 300°
2026-05-05 08:06 60.64843 5.45130 7928 ft 156 kts 300°
2026-05-05 08:07 60.65411 5.43189 7934 ft 159 kts 300°
2026-05-05 08:07 60.65969 5.41257 7935 ft 159 kts 300°
2026-05-05 08:07 60.66395 5.39190 7922 ft 160 kts 282°
2026-05-05 08:07 60.66584 5.36952 7838 ft 162 kts 280°
2026-05-05 08:08 60.66767 5.34713 7693 ft 160 kts 279°
2026-05-05 08:08 60.66946 5.32474 7531 ft 159 kts 279°
2026-05-05 08:08 60.67120 5.30244 7363 ft 160 kts 277°
2026-05-05 08:08 60.66820 5.28101 7172 ft 164 kts 233°
2026-05-05 08:09 60.65806 5.27015 6926 ft 176 kts 191°
2026-05-05 08:09 60.64593 5.26978 6696 ft 176 kts 183°
2026-05-05 08:09 60.63382 5.27025 6468 ft 174 kts 182°
2026-05-05 08:09 60.62180 5.27094 6261 ft 173 kts 182°
2026-05-05 08:10 60.60984 5.27178 6063 ft 173 kts 181°
2026-05-05 08:10 60.59797 5.27269 5872 ft 172 kts 181°
2026-05-05 08:10 60.58606 5.27366 5683 ft 171 kts 180°
2026-05-05 08:10 60.57425 5.27466 5507 ft 170 kts 181°
2026-05-05 08:11 60.56238 5.27568 5299 ft 172 kts 181°
2026-05-05 08:11 60.55070 5.27670 5112 ft 168 kts 180°
2026-05-05 08:11 60.53916 5.27771 4940 ft 167 kts 180°
2026-05-05 08:11 60.52759 5.27872 4763 ft 167 kts 180°
2026-05-05 08:12 60.51610 5.27935 4577 ft 165 kts 188°
2026-05-05 08:12 60.50647 5.26888 4370 ft 154 kts 232°
2026-05-05 08:12 60.50095 5.25160 4195 ft 142 kts 240°
2026-05-05 08:12 60.49604 5.23502 4016 ft 135 kts 241°
2026-05-05 08:13 60.49134 5.21881 3882 ft 134 kts 241°
2026-05-05 08:13 60.48664 5.20243 3752 ft 135 kts 241°
2026-05-05 08:13 60.48196 5.18599 3622 ft 136 kts 242°
2026-05-05 08:13 60.47698 5.16973 3463 ft 139 kts 227°
2026-05-05 08:14 60.46824 5.16209 3311 ft 143 kts 183°
2026-05-05 08:14 60.45836 5.16258 3196 ft 143 kts 180°
2026-05-05 08:14 60.44855 5.16564 3058 ft 143 kts 173°
2026-05-05 08:14 60.43885 5.16919 2941 ft 142 kts 173°
2026-05-05 08:15 60.42913 5.17250 2769 ft 142 kts 174°
2026-05-05 08:15 60.41942 5.17578 2581 ft 142 kts 174°
2026-05-05 08:15 60.40977 5.17904 2384 ft 140 kts 174°
2026-05-05 08:15 60.40038 5.18222 2177 ft 134 kts 174°
2026-05-05 08:16 60.39132 5.18527 1989 ft 133 kts 173°
2026-05-05 08:16 60.38223 5.18832 1810 ft 133 kts 173°
2026-05-05 08:16 60.37317 5.19137 1627 ft 133 kts 173°
2026-05-05 08:16 60.36412 5.19439 1439 ft 132 kts 173°
2026-05-05 08:17 60.35510 5.19742 1258 ft 132 kts 172°
2026-05-05 08:17 60.34613 5.20046 1073 ft 131 kts 171°
2026-05-05 08:17 60.33717 5.20347 890 ft 130 kts 171°
2026-05-05 08:17 60.32835 5.20644 711 ft 129 kts 171°
2026-05-05 08:18 60.31962 5.20936 531 ft 127 kts 171°
2026-05-05 08:18 60.31106 5.21238 353 ft 125 kts 169°
2026-05-05 08:18 60.30252 5.21536 175 ft 125 kts 169°
2026-05-05 08:18 60.29541 5.21763 149 ft 76 kts 172°
2026-05-05 08:19 60.29195 5.21867 159 ft 38 kts 169°
2026-05-05 08:19 60.28988 5.21930 164 ft 23 kts 169°
2026-05-05 08:19 60.28912 5.22072 166 ft 14 kts 90°
2026-05-05 08:19 60.28924 5.22216 171 ft 7 kts 80°
2026-05-05 08:20 60.28930 5.22294 172 ft 5 kts 80°
2026-05-05 08:20 60.28934 5.22345 173 ft 2 kts 80°
2026-05-05 08:20 60.28937 5.22366 174 ft 2 kts 67°
2026-05-05 08:20 60.28947 5.22418 175 ft 5 kts 93°
2026-05-05 08:21 60.28936 5.22499 176 ft 6 kts 107°
2026-05-05 08:21 60.28928 5.22547 176 ft 0 kts 107°